Regional Weather Roundup
Issued by NWS

Home | Current Version | Previous Version | Graphics & Text | Print | Product List | Glossary On
Versions: 1 2 3 4 5 6 7 8 9 10 11 12 13 14 15 16 17 18 19 20 21 22 23 24 25 26 27 28 29 30 31 32 33 34 35 36 37 38 39 40 41 42 43 44 45 46 47 48 49 50
000
ASUS45 KTFX 271510
RWRMT
MONTANA REGIONAL WEATHER ROUNDUP
NATIONAL WEATHER SERVICE GREAT FALLS MT
900 AM MDT WED MAY 27 2015

NOTE: "FAIR" INDICATES FEW OR NO CLOUDS BELOW 12000 FEET WITH NO
SIGNIFICANT WEATHER AND/OR OBSTRUCTIONS TO VISIBILITY.

MTZ001>007-043-271600-
WEST OF THE DIVIDE

CITY           SKY/WX    TMP DP  RH WIND       PRES   REMARKS
KALISPELL      CLOUDY    53  47  79 CALM      30.03R
MISSOULA       PTSUNNY   51  45  79 CALM      30.06S
BUTTE          CLOUDY    48  43  82 E3        30.07S
MULLAN PASS    MOSUNNY   46  42  86 CALM      30.07S
DEER LODGE       N/A     48  45  87 CALM      30.10R
EUREKA           N/A     54  46  76 CALM      30.05S
HAMILTON         N/A     52  46  82 SE3       30.05S
LIBBY            N/A     48  46  93 CALM      30.07R
$$

MTZ008-052>055-271600-
SOUTHWEST MONTANA

CITY           SKY/WX    TMP DP  RH WIND       PRES   REMARKS
BOZEMAN        CLOUDY    51  47  86 W5        30.06S
DILLON         CLOUDY    50  46  86 CALM      30.06S
W YELLOWSTONE  CLOUDY    46  39  76 SW7       30.11S
$$

MTZ009-010-012-014-046-048-049-054-271600-
EAST SLOPES AND CENTRAL MONTANA

CITY           SKY/WX    TMP DP  RH WIND       PRES   REMARKS
CUT BANK       CLOUDY    55  48  77 NW12      30.03S
GREAT FALLS    CLOUDY    52  48  86 SW9       30.03S
MALMSTROM AFB  PTSUNNY   53  48  83 W8        30.04R
HELENA         CLOUDY    53  48  83 CALM      30.05S
$$

MTZ011-013-016-021-045-047-050-051-271600-
NORTH CENTRAL MONTANA

CITY           SKY/WX    TMP DP  RH WIND       PRES   REMARKS
HAVRE          PTSUNNY   61  52  72 W7        29.96S
LEWISTOWN      CLOUDY    53  48  83 W3        30.03S
N BAR RANCH    PTSUNNY   59  50  72 NW12      30.04R
CHINOOK          N/A     63  54  72 W7        29.96S
FORT BENTON      N/A     61  50  67 SW12      30.01S
$$

MTZ017>020-022>027-061-062-271600-
NORTHEAST MONTANA

CITY           SKY/WX    TMP DP  RH WIND       PRES   REMARKS
GLASGOW        PTSUNNY   62  54  74 CALM      29.94R
JORDAN           N/A     65  52  62 N6        29.94S
SIDNEY         MOSUNNY   64  48  55 CALM      29.93S
WOLF POINT     LGT RAIN  61  54  77 NW10      29.93S
PLENTYWOOD       N/A     73  52  46 SE6       29.94R
POPLAR           N/A     64  50  59 NW13      29.94S
$$

MTZ028>42-056>058-271600-
SOUTHCENTRAL AND SOUTHEAST MONTANA

CITY           SKY/WX    TMP DP  RH WIND       PRES   REMARKS
BAKER          MOSUNNY   68  53  58 S10       29.95S
BILLINGS       PTSUNNY   59  52  77 CALM      30.00R
LIVINGSTON     LGT RAIN  53  46  77 W9        30.04R
MILES CITY     CLOUDY    62  51  67 SE3       29.95R
BIG TIMBER       N/A     55  46  71 W8        30.04S
FORSYTH          N/A     57  57 100 SW6       29.96S
$$

REGIONAL REPORTS...DAKOTAS

CITY           SKY/WX    TMP DP  RH WIND       PRES   REMARKS
WILLISTON      SUNNY     70  48  45 VRB5      29.93S
MINOT          SUNNY     68  49  50 NE5       29.95S
DICKINSON      MOSUNNY   67  50  54 S12       29.94S
BEACH          FAIR      66  54  63 S6        29.94F
CROSBY         FAIR      66  48  52 E10       29.95S
WATFORD CITY   FAIR      72  50  46 SE8       29.92S
BISMARCK       SUNNY     70  52  52 CALM      29.97R
GRAND FORKS    MOSUNNY   61  47  59 N14       29.94S
FARGO          SUNNY     68  54  60 N7        29.93R
BUFFALO SD       N/A     66  53  63 SE7       29.90F
RAPID CITY     CLOUDY    60  54  80 S9        30.00S
$$

REGIONAL REPORTS...WYOMING/IDAHO/WASHINGTON

CITY           SKY/WX    TMP DP  RH WIND       PRES   REMARKS
GILLETTE       PTSUNNY   58  51  78 S8        30.00R
SHERIDAN       CLOUDY    56  49  77 W5        30.01R
BUFFALO WY     CLOUDY    55  49  80 NW9       30.02S
CODY           PTSUNNY   55  46  71 E5        30.04R
YELLOWSTONE LA   N/A     41  37  86 VRB3      30.17S
IDAHO FALLS    CLOUDY    51  47  86 CALM      30.08R
SALMON         CLOUDY    52  45  76 NW3       30.05R
BOISE          SUNNY     58  52  80 CALM      30.01R
SPOKANE        MOSUNNY   55  50  83 SE3       30.02S
$$

REGIONAL REPORTS...ALBERTA

CITY           SKY/WX    TMP DP  RH WIND       PRES   REMARKS
EDMONTON       PTSUNNY   61  48  63 W7        29.97S
CALGARY        PTSUNNY   59  45  58 N5        30.03S
LETHBRIDGE     MOSUNNY   59  50  72 W15       30.03S
MEDICINE HAT   CLOUDY    59  50  72 S5        29.98S
$$

REGIONAL REPORTS...SASKATCHEWAN

CITY           SKY/WX    TMP DP  RH WIND       PRES   REMARKS
SWIFT CURRENT  SUNNY     59  50  72 E13       29.96S
REGINA         PTSUNNY   59  46  63 E13       30.00R
SASKATOON      PTSUNNY   50  43  76 E8        30.06S
$$



USA.gov is the U.S. government's official web portal to all federal, state and local government web resources and services.